Weather Roundup
Issued by NWS Corpus Christi, TX

Home | Current Version | Previous Version | Text Only | Print | Product List | Glossary On
Versions: 1 2 3 4 5 6 7 8 9 10 11 12 13 14 15 16 17 18 19 20 21 22 23 24 25 26 27 28 29 30 31 32 33 34 35 36 37 38 39 40 41 42 43 44 45 46 47 48 49 50
000
ASUS44 KCRP 290410
HRRCRP

SOUTH TEXAS REGIONAL WEATHER ROUNDUP
NATIONAL WEATHER SERVICE CORPUS CHRISTI TX
1100 PM CDT SAT MAR 28 2015


TXZ229>244-290500-
...CORPUS CHRISTI AREA OBSERVATIONS...

CITY           SKY/WX    TMP DP  RH WIND       PRES   REMARKS
CORPUS CHRISTI CLEAR     65  59  81 S18       30.13R
NAS CORPUS CHR CLEAR     66  62  87 S16G24    30.13S
ROCKPORT       CLEAR     67  60  78 S10G21    30.12S
KINGSVILLE NAS CLEAR     66  60  81 S15       30.13R
ALICE          CLEAR     64  57  78 S10       30.11R
FALFURRIAS     CLEAR     61  53  73 SE6       30.12S
$$

...VICTORIA AREA OBSERVATIONS...

CITY           SKY/WX    TMP DP  RH WIND       PRES   REMARKS
VICTORIA       CLEAR     63  59  87 S12       30.12R
BEEVILLE       FAIR      63  58  85 S12       30.11S
PLEASANTON     CLEAR     66  55  69 SE8       30.09R
SAN ANTONIO    CLEAR     68  54  60 S10       30.09R
$$

...LAREDO AREA OBSERVATIONS...

CITY           SKY/WX    TMP DP  RH WIND       PRES   REMARKS
LAREDO         CLEAR     70  48  45 SE15      30.09R
COTULLA        PTCLDY    72  44  36 S10G18    30.07R
DEL RIO        CLEAR     72  43  35 SE10      30.02R
MCALLEN        CLEAR     67  59  75 SE14      30.14R
HEBBRONVILLE   NOT AVBL
$$

...OTHER TEXAS OBSERVATIONS...

CITY           SKY/WX    TMP DP  RH WIND       PRES   REMARKS
BROWNSVILLE    CLEAR     64  61  90 S8        30.17R
HOUSTON        CLEAR     66  51  58 S8        30.11S
COL. STATION   CLEAR     65  44  46 S9        30.07S
AUSTIN         CLEAR     62  48  60 S10       30.07R
WACO           CLEAR     63  48  58 S10       30.02R
FORT WORTH     PTCLDY    70  45  40 S10       29.99S
WICHITA FALLS  CLEAR     62  50  64 E10       29.97R
LUBBOCK        CLEAR     61  32  33 SE10      30.01S
EL PASO        CLEAR     74   1   6 E5        30.09R
$$

...MARINE OBSERVATIONS...

STATION/POSITION TIME  SKY/WX   TEMP    WIND        PRES    VSBY  WAVE   SWELL
                                AIR SEA DIR/SP/G                  HT/PER HT/PER
                 (UTC)          (F)     (DEG/KT/KT) (MB)    (MI)  (FT/S) (FT/S)
PORT ARANSAS     0400            67 67  180/ 17/ 18 1020.7F
BUOY 90 E PORT A 0400            71 70  190/ 16/ 19 1020.9S         3/ 5
BUOY 45 SE BAFFI 0400            70 71  170/ 17/ 21 1019.9R         3/ 4
BUOY 200 E PT IS 0400            72 73  180/ 10/ 12 1022.5F         1/ 6   2/ 6
BUOY 15 E GALVES 0400            66 65  180/ 10/ 10 1020.5F         2/ 4
$$



USA.gov is the U.S. government's official web portal to all federal, state and local government web resources and services.